Location: Clegg Observatory
(38.9178°N, 78.6069°W)
Time: 23:45:07
(UTC-04:00)

Cosmos 1151 Rocket - Visible Passes

Search period start: 25 June 2017 00:00
Search period end: 05 July 2017 00:00
Orbit: 594 x 615 km, 82.5° (Epoch: 25 June)

Date Brightness Start Highest point End Pass type
(mag) Time Alt. Az. Time Alt. Az. Time Alt. Az.
25 Jun 5.1 21:57:13 10° NE 21:59:13 13° ENE 22:00:51 11° E visible
25 Jun 3.5 23:32:51 10° NNW 23:37:06 50° W 23:37:42 47° WSW visible
26 Jun 4.6 22:08:52 10° NNE 22:12:13 21° ENE 22:13:43 18° ESE visible
26 Jun 4.4 23:45:58 10° NNW 23:49:47 29° W 23:50:35 27° WSW visible
27 Jun 3.9 22:21:07 10° N 22:25:08 34° ENE 22:26:36 27° ESE visible
27 Jun 5.2 23:59:27 10° NW 00:02:22 18° W 00:03:28 16° WSW visible
28 Jun 3.1 22:33:38 10° N 22:37:59 60° E 22:39:31 37° SE visible
29 Jun 5.8 00:14:19 10° WNW 00:14:56 10° W 00:15:32 10° W visible
29 Jun 3.0 22:46:22 10° N 22:50:46 78° W 22:52:26 37° S visible
30 Jun 5.0 21:23:16 10° NE 21:25:41 14° ENE 21:28:05 10° ESE visible
30 Jun 3.9 22:59:19 10° NNW 23:03:29 44° W 23:05:23 27° SSW visible
01 Jul 4.4 21:35:07 10° NNE 21:38:40 23° ENE 21:41:29 13° ESE visible
01 Jul 4.8 23:12:30 10° NNW 23:16:08 26° W 23:18:21 17° SW visible
02 Jul 3.7 21:47:26 10° N 21:51:33 39° ENE 21:54:29 17° SE visible
02 Jul 5.5 23:26:08 10° NW 23:28:43 16° W 23:31:19 10° WSW visible
03 Jul 3.0 22:00:02 10° N 22:04:24 68° E 22:07:29 19° SSE visible
04 Jul 3.3 22:12:48 10° NNW 22:17:09 69° W 22:20:32 16° S visible
